Location: Daouli
(14.8671°N, 3.2030°W)
Time: 02:13:57
(UTC+00:00)

SEDSat Delta rocket - Pass Details

Date: 29 October 2020
Orbit: 533 x 1000 km, 31.4° (Epoch: 02 December)

Event Time Altitude Azimuth Distance (km) Brightness Sun altitude
Rises 18:38:29 0° 251° (WSW) 3,698 9.0 -13.4°
Reaches altitude 10° 18:41:14 10° 256° (WSW) 2,756 7.8 -14.1°
Maximum altitude 18:47:53 56° 333° (NNW) 1,145 4.4 -15.7°
Enters shadow 18:52:33 19° 46° (NE) 2,079 5.3 -16.8°
